Home   Weather   State College   Past weeks

Flag for USA Past Weather in State College, Pennsylvania, USA — Yesterday and Last 2 Weeks

Now
68 °F

Clear.


Feels Like: 68 °F
Forecast: 63 / 76 °F
Wind: No wind

Location: University Park Airport

Current Time: Apr 28, 2017 at 10:15:15 pm

Latest Report: Apr 28, 2017 at 8:53 pm


Visibility: 10 mi

Pressure: 30.02 "Hg

Humidity: 38%

Dew Point: 41 °F

Location of State CollegeLocation

Past Weather in State College — Graph

°F

State College Temperature Yesterday

Maximum temperature yesterday: 73 °F (at 3:53 pm)
Minimum temperature yesterday: 56 °F (at 5:35 am)
Average temperature yesterday: 62 °F

High & Low Weather Summary for the Past Weeks

 TemperatureHumidityPressure
High77 °F (Apr 16, 1:53 pm)100% (Apr 20, 6:28 am)30.39 "Hg (Apr 20, 6:28 am)
Low34 °F (Apr 23, 6:53 am)21% (Apr 17, 5:53 pm)29.73 "Hg (Apr 27, 3:53 pm)
Average57 °F69%30.04 "Hg
* Reported Apr 13 8:53 pm — Apr 28 8:53 pm, State College, Weather by CustomWeather, © 2017

Note: Actual official high and low records may vary slightly from our data, if they occured in-between our weather recording intervals... More about our weather records

Advertising

State College Weather History for the Previous 24 Hours

Scroll right to see more
 ConditionsComfort  
Time TempWeatherWind HumidityBarometerVisibility
8:53 pm
Fri, Apr 28
68 °FClear.No wind38%30.02 "Hg10 mi
7:53 pm70 °FSunny.No wind38%30.04 "Hg10 mi
6:53 pm75 °FSunny.No wind31%30.04 "Hg10 mi
5:53 pm73 °FSunny.6 mph38%30.05 "Hg10 mi
4:53 pm75 °FSunny.6 mph34%30.03 "Hg10 mi
3:53 pm73 °FSunny.6 mph41%30.04 "Hg10 mi
2:53 pm72 °FSunny.8 mph38%30.04 "Hg10 mi
1:53 pm68 °FSunny.7 mph53%30.06 "Hg10 mi
12:53 pm66 °FSunny.6 mph52%30.06 "Hg10 mi
11:53 am64 °FSunny.6 mph56%30.07 "Hg10 mi
10:53 am61 °FSunny.5 mph68%30.07 "Hg10 mi
9:53 am59 °FPassing clouds.7 mph72%30.07 "Hg10 mi
8:53 am59 °FScattered clouds.9 mph77%30.08 "Hg10 mi
7:53 am57 °FPassing clouds.7 mph82%30.04 "Hg10 mi
6:53 am55 °FScattered clouds.3 mph88%30.01 "Hg10 mi
5:53 am55 °FPassing clouds.No wind88%29.97 "Hg10 mi
5:35 am57 °FClear.No wind91%29.96 "Hg10 mi
4:55 am56 °FClear.No wind91%29.94 "Hg10 mi
4:35 am56 °FClear.3 mph94%29.92 "Hg10 mi
4:15 am58 °FClear.No wind91%29.90 "Hg10 mi
3:55 am57 °FClear.3 mph92%29.89 "Hg10 mi
3:35 am58 °FClear.6 mph94%29.89 "Hg10 mi
3:15 am58 °FClear.No wind98%29.87 "Hg7 mi
2:55 am59 °FPassing clouds.No wind98%29.87 "Hg10 mi
2:35 am60 °FClear.No wind98%29.86 "Hg10 mi
2:15 am59 °FFog.No wind99%29.86 "Hg5 mi
1:55 am60 °FPassing clouds.3 mph98%29.85 "Hg10 mi
1:35 am60 °FFog.No wind99%29.85 "Hg4 mi
1:15 am60 °FFog.No wind98%29.84 "Hg4 mi
12:55 am61 °FPassing clouds.5 mph97%29.83 "Hg10 mi
12:35 am61 °FPassing clouds.6 mph97%29.82 "Hg10 mi
12:15 am61 °FPassing clouds.5 mph98%29.81 "Hg10 mi
11:55 pm
Thu, Apr 27
60 °FClear.7 mph97%29.81 "Hg10 mi
11:35 pm61 °FThundershowers. Clear.3 mph96%29.79 "Hg10 mi
10:55 pm63 °FPassing clouds.7 mph96%29.80 "Hg10 mi
10:35 pm63 °FThundershowers. Partly cloudy.5 mph98%29.81 "Hg10 mi
10:15 pm63 °FHeavy rain. Overcast.5 mph97%29.81 "Hg4 mi
Weather by CustomWeather, © 2017

See weather overviewHow to use our weather pages